Location: Houhaj�rvi
(61.2833°N, 23.0000°E)
Time: 00:20:29
(UTC+00:00)

Cosmos 1891 Rocket - Pass Details

Date: 27 February 2020
Orbit: 934 x 1018 km, 82.9° (Epoch: 04 April)

Event Time Altitude Azimuth Distance (km) Brightness Sun altitude
Rises 17:41:19 0° 185° (S) 3,662 7.5 -14.6°
Reaches altitude 10° 17:43:48 10° 184° (S) 2,730 6.8 -14.9°
Maximum altitude 17:50:04 78° 100° (E) 1,023 4.5 -15.6°
Drops below altitude 10° 17:56:30 10° 15° (NNE) 2,800 6.9 -16.3°
Sets 17:59:04 0° 15° (NNE) 3,762 7.6 -16.6°
